Time,TemperatureF,DewpointF,PressureIn,WindDirection,WindDirectionDegrees,WindSpeedMPH,WindSpeedGustMPH,Humidity,HourlyPrecipIn,Conditions,Clouds,dailyrainin,SoftwareType,DateUTC
2013-02-28 00:01:00,40.1,40.1,30.26,WNW,284,0.0,0.0,100,0.00,,,0.00,Wunderground v.1.15,2013-02-28 08:01:00,
2013-02-28 00:06:00,39.9,39.9,30.26,WNW,284,0.0,0.0,100,0.00,,,0.00,Wunderground v.1.15,2013-02-28 08:06:00,
2013-02-28 00:11:00,39.8,39.8,30.26,WNW,284,0.0,0.0,100,0.00,,,0.00,Wunderground v.1.15,2013-02-28 08:11:00,
2013-02-28 00:16:00,39.9,39.9,30.26,WNW,284,0.0,0.0,100,0.00,,,0.00,Wunderground v.1.15,2013-02-28 08:16:00,
2013-02-28 00:21:00,39.9,39.9,30.26,WNW,284,0.0,0.0,100,0.00,,,0.00,Wunderground v.1.15,2013-02-28 08:21:00,
2013-02-28 00:26:00,40.1,40.1,30.26,WNW,284,0.0,0.0,100,0.00,,,0.00,Wunderground v.1.15,2013-02-28 08:26:00,
2013-02-28 00:31:00,40.3,40.3,30.26,WNW,284,0.0,0.0,100,0.00,,,0.00,Wunderground v.1.15,2013-02-28 08:31:00,
2013-02-28 00:36:00,40.3,40.3,30.26,WNW,284,0.0,0.0,100,0.00,,,0.00,Wunderground v.1.15,2013-02-28 08:36:00,
2013-02-28 00:41:00,40.3,40.3,30.26,WNW,284,0.0,0.0,100,0.00,,,0.00,Wunderground v.1.15,2013-02-28 08:41:00,
2013-02-28 00:46:00,40.5,40.5,30.26,WNW,284,0.0,0.0,100,0.00,,,0.00,Wunderground v.1.15,2013-02-28 08:46:00,
2013-02-28 00:51:00,40.3,40.3,30.26,WNW,284,0.0,0.0,100,0.00,,,0.00,Wunderground v.1.15,2013-02-28 08:51:00,
2013-02-28 00:56:00,40.3,40.3,30.26,WNW,284,0.0,1.0,100,0.00,,,0.00,Wunderground v.1.15,2013-02-28 08:56:00,
2013-02-28 01:01:00,40.8,40.8,30.26,WNW,284,0.0,0.0,100,0.00,,,0.00,Wunderground v.1.15,2013-02-28 09:01:00,
2013-02-28 01:06:00,40.6,40.6,30.26,WNW,284,0.0,0.0,100,0.00,,,0.00,Wunderground v.1.15,2013-02-28 09:06:00,
2013-02-28 01:11:00,40.2,40.2,30.26,WNW,284,0.0,0.0,100,0.00,,,0.00,Wunderground v.1.15,2013-02-28 09:11:00,
2013-02-28 01:16:00,39.6,39.6,30.27,WNW,284,0.0,0.0,100,0.00,,,0.00,Wunderground v.1.15,2013-02-28 09:16:00,
2013-02-28 01:21:00,39.2,39.2,30.27,WNW,284,0.0,0.0,100,0.00,,,0.00,Wunderground v.1.15,2013-02-28 09:21:00,
2013-02-28 01:26:00,38.9,38.9,30.27,WNW,284,0.0,0.0,100,0.00,,,0.00,Wunderground v.1.15,2013-02-28 09:26:00,
2013-02-28 01:31:00,38.9,38.9,30.26,WNW,284,0.0,0.0,100,0.00,,,0.00,Wunderground v.1.15,2013-02-28 09:31:00,
2013-02-28 01:36:00,38.9,38.9,30.26,WNW,284,0.0,1.0,100,0.00,,,0.00,Wunderground v.1.15,2013-02-28 09:36:00,
2013-02-28 01:41:00,38.9,38.9,30.26,WNW,284,0.0,0.0,100,0.00,,,0.00,Wunderground v.1.15,2013-02-28 09:41:00,
2013-02-28 01:46:00,39.1,39.1,30.26,WNW,284,0.0,0.0,100,0.00,,,0.00,Wunderground v.1.15,2013-02-28 09:46:00,
2013-02-28 01:51:00,39.2,39.2,30.26,WNW,284,0.0,0.0,100,0.00,,,0.00,Wunderground v.1.15,2013-02-28 09:51:00,
2013-02-28 01:56:00,39.2,39.2,30.26,WNW,284,0.0,1.0,100,0.00,,,0.00,Wunderground v.1.15,2013-02-28 09:56:00,
2013-02-28 02:01:00,39.3,39.3,30.27,WNW,284,0.0,0.0,100,0.00,,,0.00,Wunderground v.1.15,2013-02-28 10:01:00,
2013-02-28 02:06:00,39.6,39.6,30.27,WNW,284,0.0,1.0,100,0.00,,,0.00,Wunderground v.1.15,2013-02-28 10:06:00,
2013-02-28 02:11:00,39.6,39.6,30.27,WNW,284,0.0,0.0,100,0.00,,,0.00,Wunderground v.1.15,2013-02-28 10:11:00,
2013-02-28 02:16:00,39.8,39.8,30.27,WNW,284,0.0,1.0,100,0.00,,,0.00,Wunderground v.1.15,2013-02-28 10:16:00,
2013-02-28 02:21:00,39.8,39.8,30.27,WNW,284,0.0,0.0,100,0.00,,,0.00,Wunderground v.1.15,2013-02-28 10:21:00,
2013-02-28 02:26:00,39.6,39.6,30.27,WNW,284,0.0,0.0,100,0.00,,,0.00,Wunderground v.1.15,2013-02-28 10:26:00,
2013-02-28 02:31:00,39.2,39.2,30.27,WNW,284,0.0,0.0,100,0.00,,,0.00,Wunderground v.1.15,2013-02-28 10:31:00,
2013-02-28 02:36:00,38.9,38.9,30.27,WNW,284,0.0,1.0,100,0.00,,,0.00,Wunderground v.1.15,2013-02-28 10:36:00,
2013-02-28 02:41:00,38.6,38.6,30.27,WNW,284,0.0,0.0,100,0.00,,,0.00,Wunderground v.1.15,2013-02-28 10:41:00,
2013-02-28 02:46:00,37.9,37.9,30.26,WNW,284,0.0,0.0,100,0.00,,,0.00,Wunderground v.1.15,2013-02-28 10:46:00,
2013-02-28 02:51:00,37.9,37.9,30.26,WNW,284,0.0,0.0,100,0.00,,,0.00,Wunderground v.1.15,2013-02-28 10:51:00,
2013-02-28 02:56:00,37.8,37.8,30.26,WNW,284,0.0,1.0,100,0.00,,,0.00,Wunderground v.1.15,2013-02-28 10:56:00,
2013-02-28 03:01:00,37.5,37.5,30.26,WNW,284,0.0,1.0,100,0.00,,,0.00,Wunderground v.1.15,2013-02-28 11:01:00,
2013-02-28 03:06:00,37.6,37.6,30.26,WNW,284,0.0,1.0,100,0.00,,,0.00,Wunderground v.1.15,2013-02-28 11:06:00,
2013-02-28 03:11:00,37.8,37.8,30.26,WNW,284,0.0,0.0,100,0.00,,,0.00,Wunderground v.1.15,2013-02-28 11:11:00,
2013-02-28 03:16:00,37.8,37.8,30.26,WNW,284,0.0,0.0,100,0.00,,,0.00,Wunderground v.1.15,2013-02-28 11:16:00,
2013-02-28 03:21:00,38.0,38.0,30.26,WNW,284,0.0,0.0,100,0.00,,,0.00,Wunderground v.1.15,2013-02-28 11:21:00,
2013-02-28 03:26:00,38.5,38.5,30.26,WNW,284,0.0,2.0,100,0.00,,,0.00,Wunderground v.1.15,2013-02-28 11:26:00,
2013-02-28 03:31:00,38.3,38.3,30.26,WNW,284,0.0,0.0,100,0.00,,,0.00,Wunderground v.1.15,2013-02-28 11:31:00,
2013-02-28 03:36:00,38.3,38.3,30.26,WNW,284,0.0,0.0,100,0.00,,,0.00,Wunderground v.1.15,2013-02-28 11:36:00,
2013-02-28 03:41:00,38.3,38.3,30.26,WNW,284,0.0,1.0,100,0.00,,,0.00,Wunderground v.1.15,2013-02-28 11:41:00,
2013-02-28 03:46:00,39.1,39.1,30.26,WNW,284,0.0,1.0,100,0.00,,,0.00,Wunderground v.1.15,2013-02-28 11:46:00,
2013-02-28 03:51:00,39.3,39.3,30.26,WNW,284,0.0,0.0,100,0.00,,,0.00,Wunderground v.1.15,2013-02-28 11:51:00,
2013-02-28 03:56:00,39.9,39.9,30.26,WNW,284,0.0,1.0,100,0.00,,,0.00,Wunderground v.1.15,2013-02-28 11:56:00,
2013-02-28 04:01:00,40.3,40.3,30.26,WNW,284,0.0,0.0,100,0.00,,,0.00,Wunderground v.1.15,2013-02-28 12:01:00,
2013-02-28 04:06:00,39.5,39.5,30.26,WNW,284,0.0,1.0,100,0.00,,,0.00,Wunderground v.1.15,2013-02-28 12:06:00,
2013-02-28 04:11:00,39.1,39.1,30.26,WNW,284,3.0,4.0,100,0.00,,,0.00,Wunderground v.1.15,2013-02-28 12:11:00,
2013-02-28 04:16:00,39.5,39.5,30.27,WNW,284,0.0,4.0,100,0.00,,,0.00,Wunderground v.1.15,2013-02-28 12:16:00,
2013-02-28 04:21:00,39.5,39.5,30.27,WNW,284,0.0,1.0,100,0.00,,,0.00,Wunderground v.1.15,2013-02-28 12:21:00,
2013-02-28 04:26:00,38.6,38.6,30.27,WNW,284,0.0,1.0,100,0.00,,,0.00,Wunderground v.1.15,2013-02-28 12:26:00,
2013-02-28 04:31:00,38.0,38.0,30.27,WNW,284,0.0,0.0,100,0.00,,,0.00,Wunderground v.1.15,2013-02-28 12:31:00,
2013-02-28 04:36:00,37.6,37.6,30.27,WNW,284,0.0,0.0,100,0.00,,,0.00,Wunderground v.1.15,2013-02-28 12:36:00,
2013-02-28 04:41:00,36.9,36.9,30.27,ENE,60,0.0,0.0,100,0.00,,,0.00,Wunderground v.1.15,2013-02-28 12:41:00,
2013-02-28 04:46:00,36.2,36.2,30.27,East,82,0.0,1.0,100,0.00,,,0.00,Wunderground v.1.15,2013-02-28 12:46:00,
2013-02-28 04:51:00,36.0,36.0,30.27,East,82,2.0,2.0,100,0.00,,,0.00,Wunderground v.1.15,2013-02-28 12:51:00,
2013-02-28 04:56:00,36.5,36.5,30.27,SSW,212,0.0,3.0,100,0.00,,,0.00,Wunderground v.1.15,2013-02-28 12:56:00,
2013-02-28 05:01:00,36.9,36.9,30.27,SSW,212,0.0,1.0,100,0.00,,,0.00,Wunderground v.1.15,2013-02-28 13:01:00,
2013-02-28 05:06:00,36.8,36.8,30.27,SSW,212,0.0,1.0,100,0.00,,,0.00,Wunderground v.1.15,2013-02-28 13:06:00,
2013-02-28 05:11:00,36.8,36.8,30.27,SSW,212,0.0,0.0,100,0.00,,,0.00,Wunderground v.1.15,2013-02-28 13:11:00,
2013-02-28 05:16:00,37.2,37.2,30.27,SSW,212,0.0,2.0,100,0.00,,,0.00,Wunderground v.1.15,2013-02-28 13:16:00,
2013-02-28 05:21:00,37.8,37.8,30.27,SSW,212,0.0,1.0,100,0.00,,,0.00,Wunderground v.1.15,2013-02-28 13:21:00,
2013-02-28 05:26:00,38.0,38.0,30.27,SSW,212,0.0,2.0,100,0.00,,,0.00,Wunderground v.1.15,2013-02-28 13:26:00,
2013-02-28 05:31:00,38.6,38.6,30.27,SSW,212,2.0,2.0,100,0.00,,,0.00,Wunderground v.1.15,2013-02-28 13:31:00,
2013-02-28 05:36:00,38.9,38.9,30.27,SSW,212,0.0,2.0,100,0.00,,,0.00,Wunderground v.1.15,2013-02-28 13:36:00,
2013-02-28 05:41:00,38.9,38.9,30.27,SSW,212,0.0,0.0,100,0.00,,,0.00,Wunderground v.1.15,2013-02-28 13:41:00,
2013-02-28 05:46:00,38.5,38.5,30.27,SSW,212,0.0,0.0,100,0.00,,,0.00,Wunderground v.1.15,2013-02-28 13:46:00,
2013-02-28 05:51:00,38.2,38.2,30.27,SSW,212,0.0,0.0,100,0.00,,,0.00,Wunderground v.1.15,2013-02-28 13:51:00,
2013-02-28 05:56:00,38.8,38.8,30.27,SSW,212,0.0,0.0,100,0.00,,,0.00,Wunderground v.1.15,2013-02-28 13:56:00,
2013-02-28 06:01:00,38.9,38.9,30.27,SSW,212,0.0,0.0,100,0.00,,,0.00,Wunderground v.1.15,2013-02-28 14:01:00,
2013-02-28 06:06:00,38.8,38.8,30.27,SSW,212,0.0,0.0,100,0.00,,,0.00,Wunderground v.1.15,2013-02-28 14:06:00,
2013-02-28 06:11:00,38.6,38.6,30.27,SSW,212,0.0,0.0,100,0.00,,,0.00,Wunderground v.1.15,2013-02-28 14:11:00,
2013-02-28 06:16:00,38.5,38.5,30.27,SSW,212,0.0,0.0,100,0.00,,,0.00,Wunderground v.1.15,2013-02-28 14:16:00,
2013-02-28 06:21:00,38.2,38.2,30.27,SSW,212,0.0,0.0,100,0.00,,,0.00,Wunderground v.1.15,2013-02-28 14:21:00,
2013-02-28 06:26:00,38.3,38.3,30.27,SSW,212,0.0,0.0,100,0.00,,,0.00,Wunderground v.1.15,2013-02-28 14:26:00,
2013-02-28 06:31:00,38.6,38.6,30.27,SSW,212,0.0,0.0,100,0.00,,,0.00,Wunderground v.1.15,2013-02-28 14:31:00,
2013-02-28 06:36:00,38.9,38.9,30.27,SSW,212,0.0,1.0,100,0.00,,,0.00,Wunderground v.1.15,2013-02-28 14:36:00,
2013-02-28 06:41:00,39.8,39.8,30.27,SSW,212,0.0,0.0,100,0.00,,,0.00,Wunderground v.1.15,2013-02-28 14:41:00,
2013-02-28 06:46:00,40.2,40.2,30.29,SSW,212,0.0,0.0,100,0.00,,,0.00,Wunderground v.1.15,2013-02-28 14:46:00,
2013-02-28 06:51:00,39.9,39.9,30.29,SSE,163,0.0,1.0,100,0.00,,,0.00,Wunderground v.1.15,2013-02-28 14:51:00,
2013-02-28 06:56:00,39.2,39.2,30.29,SSE,163,0.0,1.0,100,0.00,,,0.00,Wunderground v.1.15,2013-02-28 14:56:00,
2013-02-28 07:01:00,38.9,38.9,30.30,SSE,163,0.0,0.0,100,0.00,,,0.00,Wunderground v.1.15,2013-02-28 15:01:00,
2013-02-28 07:06:00,38.9,38.9,30.30,SSW,198,0.0,2.0,100,0.00,,,0.00,Wunderground v.1.15,2013-02-28 15:06:00,
2013-02-28 07:11:00,39.6,39.6,30.30,SSE,166,0.0,1.0,100,0.00,,,0.00,Wunderground v.1.15,2013-02-28 15:11:00,
2013-02-28 07:16:00,40.6,40.6,30.30,SSE,166,0.0,2.0,100,0.00,,,0.00,Wunderground v.1.15,2013-02-28 15:16:00,
2013-02-28 07:21:00,41.2,41.2,30.30,SSE,167,0.0,0.0,100,0.00,,,0.00,Wunderground v.1.15,2013-02-28 15:21:00,
2013-02-28 07:26:00,41.5,41.5,30.30,SSE,167,0.0,2.0,100,0.00,,,0.00,Wunderground v.1.15,2013-02-28 15:26:00,
2013-02-28 07:31:00,42.1,42.1,30.30,SSE,157,1.0,2.0,100,0.00,,,0.00,Wunderground v.1.15,2013-02-28 15:31:00,
2013-02-28 07:36:00,41.8,41.8,30.30,SSE,157,0.0,2.0,100,0.00,,,0.00,Wunderground v.1.15,2013-02-28 15:36:00,
2013-02-28 07:41:00,41.5,41.5,30.30,SSE,157,0.0,0.0,100,0.00,,,0.00,Wunderground v.1.15,2013-02-28 15:41:00,
2013-02-28 07:46:00,41.8,41.8,30.31,SSE,157,0.0,0.0,100,0.00,,,0.00,Wunderground v.1.15,2013-02-28 15:46:00,
2013-02-28 07:51:00,42.3,42.3,30.31,SSE,157,0.0,0.0,100,0.00,,,0.00,Wunderground v.1.15,2013-02-28 15:51:00,
2013-02-28 07:56:00,43.1,43.1,30.31,SSE,157,0.0,0.0,100,0.00,,,0.00,Wunderground v.1.15,2013-02-28 15:56:00,
2013-02-28 08:01:00,43.5,43.5,30.32,SSE,157,0.0,0.0,100,0.00,,,0.00,Wunderground v.1.15,2013-02-28 16:01:00,
2013-02-28 08:06:00,44.2,44.2,30.32,SSE,157,0.0,0.0,100,0.00,,,0.00,Wunderground v.1.15,2013-02-28 16:06:00,
2013-02-28 08:11:00,44.8,44.8,30.32,SSE,157,0.0,0.0,100,0.00,,,0.00,Wunderground v.1.15,2013-02-28 16:11:00,
2013-02-28 08:16:00,45.7,45.7,30.32,SSE,157,0.0,0.0,100,0.00,,,0.00,Wunderground v.1.15,2013-02-28 16:16:00,
2013-02-28 08:21:00,46.8,46.8,30.32,SSE,157,0.0,1.0,100,0.00,,,0.00,Wunderground v.1.15,2013-02-28 16:21:00,
2013-02-28 08:26:00,48.9,48.9,30.32,SSE,157,0.0,1.0,100,0.00,,,0.00,Wunderground v.1.15,2013-02-28 16:26:00,
2013-02-28 08:31:00,50.7,50.7,30.33,SSE,157,0.0,0.0,100,0.00,,,0.00,Wunderground v.1.15,2013-02-28 16:31:00,
2013-02-28 08:37:00,51.9,51.9,30.33,SSE,157,0.0,0.0,100,0.00,,,0.00,Wunderground v.1.15,2013-02-28 16:37:00,
2013-02-28 08:42:00,52.9,52.9,30.33,SSE,157,0.0,0.0,100,0.00,,,0.00,Wunderground v.1.15,2013-02-28 16:42:00,
2013-02-28 08:47:00,53.9,52.8,30.33,East,98,0.0,3.0,96,0.00,,,0.00,Wunderground v.1.15,2013-02-28 16:47:00,
2013-02-28 08:52:00,54.8,52.2,30.33,NNE,23,0.0,2.0,91,0.00,,,0.00,Wunderground v.1.15,2013-02-28 16:52:00,
2013-02-28 08:57:00,55.9,51.8,30.33,East,97,0.0,3.0,86,0.00,,,0.00,Wunderground v.1.15,2013-02-28 16:57:00,
2013-02-28 09:02:00,56.9,51.5,30.33,NNE,14,1.0,2.0,82,0.00,,,0.00,Wunderground v.1.15,2013-02-28 17:02:00,
2013-02-28 09:07:00,57.8,50.6,30.33,NNE,21,0.0,3.0,77,0.00,,,0.00,Wunderground v.1.15,2013-02-28 17:07:00,
2013-02-28 09:12:00,58.6,51.1,30.33,NNE,21,0.0,1.0,76,0.00,,,0.00,Wunderground v.1.15,2013-02-28 17:12:00,
2013-02-28 09:17:00,59.2,50.9,30.33,NNE,21,0.0,2.0,74,0.00,,,0.00,Wunderground v.1.15,2013-02-28 17:17:00,
2013-02-28 09:22:00,59.9,50.8,30.33,ESE,110,0.0,1.0,72,0.00,,,0.00,Wunderground v.1.15,2013-02-28 17:22:00,
2013-02-28 09:27:00,61.2,50.6,30.33,North,351,0.0,4.0,68,0.00,,,0.00,Wunderground v.1.15,2013-02-28 17:27:00,
2013-02-28 09:32:00,62.0,50.9,30.32,North,351,0.0,1.0,67,0.00,,,0.00,Wunderground v.1.15,2013-02-28 17:32:00,
2013-02-28 09:37:00,62.6,51.1,30.32,North,351,0.0,1.0,66,0.00,,,0.00,Wunderground v.1.15,2013-02-28 17:37:00,
2013-02-28 09:41:00,63.1,51.1,30.32,North,351,0.0,1.0,65,0.00,,,0.00,Wunderground v.1.15,2013-02-28 17:41:00,
2013-02-28 09:46:00,63.9,51.1,30.32,North,351,0.0,1.0,63,0.00,,,0.00,Wunderground v.1.15,2013-02-28 17:46:00,
2013-02-28 09:52:00,64.8,50.6,30.32,North,351,0.0,1.0,60,0.00,,,0.00,Wunderground v.1.15,2013-02-28 17:52:00,
2013-02-28 09:57:00,64.5,52.0,30.32,West,264,4.0,4.0,64,0.00,,,0.00,Wunderground v.1.15,2013-02-28 17:57:00,
2013-02-28 10:02:00,63.9,51.9,30.33,West,265,1.0,3.0,65,0.00,,,0.00,Wunderground v.1.15,2013-02-28 18:02:00,
2013-02-28 10:07:00,63.4,52.7,30.33,West,274,1.0,4.0,68,0.00,,,0.00,Wunderground v.1.15,2013-02-28 18:07:00,
2013-02-28 10:12:00,62.9,52.6,30.33,West,281,1.0,3.0,69,0.00,,,0.00,Wunderground v.1.15,2013-02-28 18:12:00,
2013-02-28 10:17:00,63.1,49.9,30.33,SSW,212,0.0,3.0,62,0.00,,,0.00,Wunderground v.1.15,2013-02-28 18:17:00,
2013-02-28 10:22:00,64.0,50.3,30.33,South,191,0.0,1.0,61,0.00,,,0.00,Wunderground v.1.15,2013-02-28 18:22:00,
2013-02-28 10:27:00,64.8,51.5,30.33,South,191,0.0,1.0,62,0.00,,,0.00,Wunderground v.1.15,2013-02-28 18:27:00,
2013-02-28 10:32:00,65.8,51.1,30.32,SSE,161,0.0,2.0,59,0.00,,,0.00,Wunderground v.1.15,2013-02-28 18:32:00,
2013-02-28 10:37:00,66.3,51.5,30.32,SSE,161,0.0,2.0,59,0.00,,,0.00,Wunderground v.1.15,2013-02-28 18:37:00,
2013-02-28 10:42:00,66.4,51.2,30.32,NE,51,0.0,2.0,58,0.00,,,0.00,Wunderground v.1.15,2013-02-28 18:42:00,
2013-02-28 10:47:00,67.1,51.8,30.31,NE,51,0.0,2.0,58,0.00,,,0.00,Wunderground v.1.15,2013-02-28 18:47:00,
2013-02-28 10:52:00,68.1,50.3,30.31,East,84,0.0,2.0,53,0.00,,,0.00,Wunderground v.1.15,2013-02-28 18:52:00,
2013-02-28 10:57:00,68.9,47.3,30.31,ENE,65,1.0,3.0,46,0.00,,,0.00,Wunderground v.1.15,2013-02-28 18:57:00,
2013-02-28 11:02:00,69.4,47.7,30.31,East,85,1.0,5.0,46,0.00,,,0.00,Wunderground v.1.15,2013-02-28 19:02:00,
2013-02-28 11:07:00,69.8,47.5,30.31,ESE,120,0.0,5.0,45,0.00,,,0.00,Wunderground v.1.15,2013-02-28 19:07:00,
2013-02-28 11:12:00,70.4,44.3,30.31,East,92,0.0,2.0,39,0.00,,,0.00,Wunderground v.1.15,2013-02-28 19:12:00,
2013-02-28 11:17:00,70.9,44.0,30.31,ESE,111,0.0,3.0,38,0.00,,,0.00,Wunderground v.1.15,2013-02-28 19:17:00,
2013-02-28 11:22:00,71.3,44.4,30.31,ESE,104,0.0,1.0,38,0.00,,,0.00,Wunderground v.1.15,2013-02-28 19:22:00,
2013-02-28 11:27:00,71.5,43.8,30.31,SE,126,3.0,5.0,37,0.00,,,0.00,Wunderground v.1.15,2013-02-28 19:27:00,
2013-02-28 11:32:00,70.8,41.8,30.30,ESE,121,3.0,9.0,35,0.00,,,0.00,Wunderground v.1.15,2013-02-28 19:32:00,
2013-02-28 11:37:00,70.6,41.6,30.30,ENE,72,0.0,9.0,35,0.00,,,0.00,Wunderground v.1.15,2013-02-28 19:37:00,
2013-02-28 11:42:00,70.4,42.9,30.30,WSW,255,1.0,10.0,37,0.00,,,0.00,Wunderground v.1.15,2013-02-28 19:42:00,
2013-02-28 11:47:00,66.1,50.4,30.31,WNW,286,4.0,10.0,57,0.00,,,0.00,Wunderground v.1.15,2013-02-28 19:47:00,
2013-02-28 11:52:00,62.7,52.0,30.31,SW,229,3.0,5.0,68,0.00,,,0.00,Wunderground v.1.15,2013-02-28 19:52:00,
2013-02-28 11:57:00,61.2,51.3,30.31,SW,235,2.0,5.0,70,0.00,,,0.00,Wunderground v.1.15,2013-02-28 19:57:00,
2013-02-28 12:02:00,61.2,52.1,30.31,WSW,248,0.0,2.0,72,0.00,,,0.00,Wunderground v.1.15,2013-02-28 20:02:00,
2013-02-28 12:07:00,61.5,51.2,30.31,WSW,257,1.0,3.0,69,0.00,,,0.00,Wunderground v.1.15,2013-02-28 20:07:00,
2013-02-28 12:12:00,62.1,51.4,30.31,WSW,238,0.0,2.0,68,0.00,,,0.00,Wunderground v.1.15,2013-02-28 20:12:00,
2013-02-28 12:17:00,63.1,50.7,30.30,WSW,238,2.0,2.0,64,0.00,,,0.00,Wunderground v.1.15,2013-02-28 20:17:00,
2013-02-28 12:22:00,64.2,49.1,30.30,WSW,238,2.0,3.0,58,0.00,,,0.00,Wunderground v.1.15,2013-02-28 20:22:00,
2013-02-28 12:27:00,65.5,52.1,30.30,SW,224,0.0,3.0,62,0.00,,,0.00,Wunderground v.1.15,2013-02-28 20:27:00,
2013-02-28 12:32:00,66.0,49.4,30.30,NNW,341,0.0,2.0,55,0.00,,,0.00,Wunderground v.1.15,2013-02-28 20:32:00,
2013-02-28 12:37:00,65.8,48.7,30.30,West,264,1.0,4.0,54,0.00,,,0.00,Wunderground v.1.15,2013-02-28 20:37:00,
2013-02-28 12:42:00,66.0,47.3,30.30,North,0,0.0,3.0,51,0.00,,,0.00,Wunderground v.1.15,2013-02-28 20:42:00,
2013-02-28 12:47:00,66.0,46.8,30.29,NNE,13,0.0,4.0,50,0.00,,,0.00,Wunderground v.1.15,2013-02-28 20:47:00,
2013-02-28 12:52:00,65.5,47.9,30.29,NNW,336,0.0,2.0,53,0.00,,,0.00,Wunderground v.1.15,2013-02-28 20:52:00,
2013-02-28 12:57:00,66.1,48.5,30.29,North,358,3.0,3.0,53,0.00,,,0.00,Wunderground v.1.15,2013-02-28 20:57:00,
2013-02-28 13:02:00,66.4,49.2,30.28,North,11,0.0,3.0,54,0.00,,,0.00,Wunderground v.1.15,2013-02-28 21:02:00,
2013-02-28 13:07:00,66.6,47.9,30.28,West,259,2.0,3.0,51,0.00,,,0.00,Wunderground v.1.15,2013-02-28 21:07:00,
2013-02-28 13:12:00,66.4,48.2,30.28,NNE,25,0.0,2.0,52,0.00,,,0.00,Wunderground v.1.15,2013-02-28 21:12:00,
2013-02-28 13:17:00,66.9,46.6,30.28,SE,141,1.0,3.0,48,0.00,,,0.00,Wunderground v.1.15,2013-02-28 21:17:00,
2013-02-28 13:22:00,67.3,45.2,30.28,WSW,242,0.0,3.0,45,0.00,,,0.00,Wunderground v.1.15,2013-02-28 21:22:00,
2013-02-28 13:27:00,67.6,45.5,30.28,North,4,1.0,4.0,45,0.00,,,0.00,Wunderground v.1.15,2013-02-28 21:27:00,
2013-02-28 13:32:00,67.6,43.7,30.26,NW,321,0.0,4.0,42,0.00,,,0.00,Wunderground v.1.15,2013-02-28 21:32:00,
2013-02-28 13:37:00,67.6,43.7,30.26,NNW,331,1.0,4.0,42,0.00,,,0.00,Wunderground v.1.15,2013-02-28 21:37:00,
2013-02-28 13:42:00,68.1,44.1,30.26,North,356,4.0,4.0,42,0.00,,,0.00,Wunderground v.1.15,2013-02-28 21:42:00,
2013-02-28 13:47:00,67.4,45.9,30.26,WSW,247,1.0,6.0,46,0.00,,,0.00,Wunderground v.1.15,2013-02-28 21:47:00,
2013-02-28 13:52:00,67.4,45.9,30.26,East,89,0.0,2.0,46,0.00,,,0.00,Wunderground v.1.15,2013-02-28 21:52:00,
2013-02-28 13:57:00,67.8,45.7,30.26,North,1,0.0,2.0,45,0.00,,,0.00,Wunderground v.1.15,2013-02-28 21:57:00,
2013-02-28 14:02:00,67.8,45.1,30.26,WSW,253,3.0,4.0,44,0.00,,,0.00,Wunderground v.1.15,2013-02-28 22:02:00,
2013-02-28 14:07:00,67.3,44.0,30.26,West,267,0.0,4.0,43,0.00,,,0.00,Wunderground v.1.15,2013-02-28 22:07:00,
2013-02-28 14:12:00,67.1,44.4,30.26,WNW,302,0.0,3.0,44,0.00,,,0.00,Wunderground v.1.15,2013-02-28 22:12:00,
2013-02-28 14:17:00,67.1,43.2,30.26,NE,41,2.0,3.0,42,0.00,,,0.00,Wunderground v.1.15,2013-02-28 22:17:00,
2013-02-28 14:22:00,66.9,43.7,30.26,NNW,347,1.0,2.0,43,0.00,,,0.00,Wunderground v.1.15,2013-02-28 22:22:00,
2013-02-28 14:27:00,66.9,42.4,30.26,SW,233,2.0,5.0,41,0.00,,,0.00,Wunderground v.1.15,2013-02-28 22:27:00,
2013-02-28 14:32:00,66.8,44.2,30.26,NNW,347,2.0,4.0,44,0.00,,,0.00,Wunderground v.1.15,2013-02-28 22:32:00,
2013-02-28 14:37:00,66.8,43.6,30.26,ENE,65,0.0,4.0,43,0.00,,,0.00,Wunderground v.1.15,2013-02-28 22:37:00,
2013-02-28 14:42:00,66.4,43.8,30.26,WNW,300,1.0,3.0,44,0.00,,,0.00,Wunderground v.1.15,2013-02-28 22:42:00,
2013-02-28 14:47:00,66.3,46.0,30.26,WNW,290,0.0,3.0,48,0.00,,,0.00,Wunderground v.1.15,2013-02-28 22:47:00,
2013-02-28 14:52:00,65.6,47.0,30.26,South,176,0.0,3.0,51,0.00,,,0.00,Wunderground v.1.15,2013-02-28 22:52:00,
2013-02-28 14:57:00,65.2,46.1,30.26,SE,141,0.0,3.0,50,0.00,,,0.00,Wunderground v.1.15,2013-02-28 22:57:00,
2013-02-28 15:02:00,65.2,45.0,30.26,SE,141,0.0,1.0,48,0.00,,,0.00,Wunderground v.1.15,2013-02-28 23:02:00,
2013-02-28 15:07:00,65.6,44.8,30.26,NE,50,0.0,2.0,47,0.00,,,0.00,Wunderground v.1.15,2013-02-28 23:07:00,
2013-02-28 15:12:00,66.1,45.3,30.26,NE,54,1.0,1.0,47,0.00,,,0.00,Wunderground v.1.15,2013-02-28 23:12:00,
2013-02-28 15:17:00,66.6,45.7,30.26,NE,53,0.0,1.0,47,0.00,,,0.00,Wunderground v.1.15,2013-02-28 23:17:00,
2013-02-28 15:22:00,66.9,44.9,30.26,ENE,70,0.0,1.0,45,0.00,,,0.00,Wunderground v.1.15,2013-02-28 23:22:00,
2013-02-28 15:27:00,67.3,43.4,30.26,NW,325,0.0,3.0,42,0.00,,,0.00,Wunderground v.1.15,2013-02-28 23:27:00,
2013-02-28 15:32:00,67.4,42.9,30.26,NNW,338,0.0,3.0,41,0.00,,,0.00,Wunderground v.1.15,2013-02-28 23:32:00,
2013-02-28 15:37:00,67.1,44.4,30.26,NNW,344,2.0,4.0,44,0.00,,,0.00,Wunderground v.1.15,2013-02-28 23:37:00,
2013-02-28 15:42:00,65.0,47.9,30.26,WNW,286,2.0,6.0,54,0.00,,,0.00,Wunderground v.1.15,2013-02-28 23:42:00,
2013-02-28 15:47:00,62.4,49.2,30.26,West,271,1.0,6.0,62,0.00,,,0.00,Wunderground v.1.15,2013-02-28 23:47:00,
2013-02-28 15:52:00,60.4,49.0,30.26,WSW,247,3.0,5.0,66,0.00,,,0.00,Wunderground v.1.15,2013-02-28 23:52:00,
2013-02-28 15:57:00,59.2,49.4,30.26,WSW,258,4.0,5.0,70,0.00,,,0.00,Wunderground v.1.15,2013-02-28 23:57:00,
2013-02-28 16:02:00,58.1,50.2,30.26,NE,44,0.0,5.0,75,0.00,,,0.00,Wunderground v.1.15,2013-03-01 00:02:00,
2013-02-28 16:08:00,57.2,50.1,30.26,West,264,9.0,9.0,77,0.00,,,0.00,Wunderground v.1.15,2013-03-01 00:08:00,
2013-02-28 16:13:00,56.6,49.8,30.26,West,262,2.0,5.0,78,0.00,,,0.00,Wunderground v.1.15,2013-03-01 00:13:00,
2013-02-28 16:18:00,56.6,50.2,30.26,West,281,4.0,5.0,79,0.00,,,0.00,Wunderground v.1.15,2013-03-01 00:18:00,
2013-02-28 16:23:00,56.6,49.8,30.26,West,276,3.0,5.0,78,0.00,,,0.00,Wunderground v.1.15,2013-03-01 00:23:00,
2013-02-28 16:28:00,56.6,50.2,30.26,West,276,4.0,5.0,79,0.00,,,0.00,Wunderground v.1.15,2013-03-01 00:28:00,
2013-02-28 16:33:00,56.5,50.1,30.26,West,277,3.0,4.0,79,0.00,,,0.00,Wunderground v.1.15,2013-03-01 00:33:00,
2013-02-28 16:38:00,56.2,50.1,30.26,West,264,2.0,5.0,80,0.00,,,0.00,Wunderground v.1.15,2013-03-01 00:38:00,
2013-02-28 16:43:00,55.7,50.0,30.26,West,266,1.0,3.0,81,0.00,,,0.00,Wunderground v.1.15,2013-03-01 00:43:00,
2013-02-28 16:48:00,55.6,49.9,30.26,WNW,302,1.0,3.0,81,0.00,,,0.00,Wunderground v.1.15,2013-03-01 00:48:00,
2013-02-28 16:53:00,55.4,49.7,30.26,West,281,0.0,1.0,81,0.00,,,0.00,Wunderground v.1.15,2013-03-01 00:53:00,
2013-02-28 16:58:00,55.3,49.2,30.26,West,281,1.0,2.0,80,0.00,,,0.00,Wunderground v.1.15,2013-03-01 00:58:00,
2013-02-28 17:03:00,55.4,48.7,30.26,West,281,0.0,2.0,78,0.00,,,0.00,Wunderground v.1.15,2013-03-01 01:03:00,
2013-02-28 17:08:00,55.6,48.5,30.26,West,281,0.0,2.0,77,0.00,,,0.00,Wunderground v.1.15,2013-03-01 01:08:00,
2013-02-28 17:13:00,55.7,48.2,30.26,West,281,0.0,0.0,76,0.00,,,0.00,Wunderground v.1.15,2013-03-01 01:13:00,
2013-02-28 17:18:00,55.7,47.9,30.25,West,281,0.0,0.0,75,0.00,,,0.00,Wunderground v.1.15,2013-03-01 01:18:00,
2013-02-28 17:23:00,55.7,47.9,30.25,West,281,0.0,0.0,75,0.00,,,0.00,Wunderground v.1.15,2013-03-01 01:23:00,
2013-02-28 17:28:00,55.6,47.4,30.25,West,281,0.0,0.0,74,0.00,,,0.00,Wunderground v.1.15,2013-03-01 01:28:00,
2013-02-28 17:33:00,55.6,48.2,30.26,West,281,0.0,0.0,76,0.00,,,0.00,Wunderground v.1.15,2013-03-01 01:33:00,
2013-02-28 17:38:00,55.4,49.3,30.26,West,281,0.0,1.0,80,0.00,,,0.00,Wunderground v.1.15,2013-03-01 01:38:00,
2013-02-28 17:43:00,55.3,49.9,30.26,West,281,4.0,4.0,82,0.00,,,0.00,Wunderground v.1.15,2013-03-01 01:43:00,
2013-02-28 17:48:00,55.1,50.0,30.27,West,281,0.0,4.0,83,0.00,,,0.00,Wunderground v.1.15,2013-03-01 01:48:00,
2013-02-28 17:53:00,54.7,50.0,30.27,West,281,0.0,3.0,84,0.00,,,0.00,Wunderground v.1.15,2013-03-01 01:53:00,
2013-02-28 17:58:00,54.4,50.0,30.27,West,281,0.0,3.0,85,0.00,,,0.00,Wunderground v.1.15,2013-03-01 01:58:00,
2013-02-28 18:03:00,53.9,49.8,30.27,West,281,0.0,2.0,86,0.00,,,0.00,Wunderground v.1.15,2013-03-01 02:03:00,
2013-02-28 18:08:00,53.6,49.5,30.27,West,281,0.0,2.0,86,0.00,,,0.00,Wunderground v.1.15,2013-03-01 02:08:00,
2013-02-28 18:13:00,53.2,49.7,30.27,West,281,0.0,3.0,88,0.00,,,0.00,Wunderground v.1.15,2013-03-01 02:13:00,
2013-02-28 18:18:00,52.9,49.4,30.27,West,281,0.0,3.0,88,0.00,,,0.00,Wunderground v.1.15,2013-03-01 02:18:00,
2013-02-28 18:23:00,52.6,49.4,30.27,West,281,1.0,2.0,89,0.00,,,0.00,Wunderground v.1.15,2013-03-01 02:23:00,
2013-02-28 18:28:00,52.3,49.2,30.27,West,281,0.0,2.0,89,0.00,,,0.00,Wunderground v.1.15,2013-03-01 02:28:00,
2013-02-28 18:33:00,52.2,49.4,30.27,West,281,0.0,0.0,90,0.00,,,0.00,Wunderground v.1.15,2013-03-01 02:33:00,
2013-02-28 18:38:00,52.0,49.2,30.27,West,281,0.0,0.0,90,0.00,,,0.00,Wunderground v.1.15,2013-03-01 02:38:00,
2013-02-28 18:43:00,51.9,49.4,30.27,West,281,0.0,0.0,91,0.00,,,0.00,Wunderground v.1.15,2013-03-01 02:43:00,
2013-02-28 18:48:00,51.6,49.1,30.28,West,281,0.0,0.0,91,0.00,,,0.00,Wunderground v.1.15,2013-03-01 02:48:00,
2013-02-28 18:53:00,51.4,49.2,30.28,West,281,0.0,0.0,92,0.00,,,0.00,Wunderground v.1.15,2013-03-01 02:53:00,
2013-02-28 18:58:00,51.3,49.1,30.28,West,281,0.0,0.0,92,0.00,,,0.00,Wunderground v.1.15,2013-03-01 02:58:00,
2013-02-28 19:03:00,51.0,48.8,30.28,West,281,0.0,0.0,92,0.00,,,0.00,Wunderground v.1.15,2013-03-01 03:03:00,
2013-02-28 19:08:00,50.7,48.5,30.28,ESE,117,0.0,2.0,92,0.00,,,0.00,Wunderground v.1.15,2013-03-01 03:08:00,
2013-02-28 19:13:00,50.5,48.3,30.28,ESE,117,0.0,1.0,92,0.00,,,0.00,Wunderground v.1.15,2013-03-01 03:13:00,
2013-02-28 19:18:00,50.4,48.5,30.29,ESE,117,0.0,1.0,93,0.00,,,0.00,Wunderground v.1.15,2013-03-01 03:18:00,
2013-02-28 19:23:00,50.2,48.3,30.29,ESE,117,0.0,0.0,93,0.00,,,0.00,Wunderground v.1.15,2013-03-01 03:23:00,
2013-02-28 19:28:00,50.1,48.2,30.29,ESE,117,0.0,0.0,93,0.00,,,0.00,Wunderground v.1.15,2013-03-01 03:28:00,
2013-02-28 19:33:00,49.9,48.0,30.30,ESE,117,0.0,0.0,93,0.00,,,0.00,Wunderground v.1.15,2013-03-01 03:33:00,
2013-02-28 19:38:00,50.1,48.4,30.30,ESE,117,0.0,1.0,94,0.00,,,0.00,Wunderground v.1.15,2013-03-01 03:38:00,
2013-02-28 19:43:00,49.9,48.2,30.30,ESE,117,0.0,0.0,94,0.00,,,0.00,Wunderground v.1.15,2013-03-01 03:43:00,
2013-02-28 19:48:00,49.9,48.2,30.30,ESE,117,0.0,1.0,94,0.00,,,0.00,Wunderground v.1.15,2013-03-01 03:48:00,
2013-02-28 19:53:00,49.8,48.1,30.30,ESE,117,0.0,0.0,94,0.00,,,0.00,Wunderground v.1.15,2013-03-01 03:53:00,
2013-02-28 19:58:00,49.5,47.8,30.30,ESE,117,1.0,1.0,94,0.00,,,0.00,Wunderground v.1.15,2013-03-01 03:58:00,
2013-02-28 20:03:00,49.4,47.7,30.30,ESE,117,0.0,1.0,94,0.00,,,0.00,Wunderground v.1.15,2013-03-01 04:03:00,
2013-02-28 20:08:00,49.2,47.5,30.30,ESE,117,0.0,1.0,94,0.00,,,0.00,Wunderground v.1.15,2013-03-01 04:08:00,
2013-02-28 20:13:00,49.1,47.4,30.30,ESE,117,0.0,0.0,94,0.00,,,0.00,Wunderground v.1.15,2013-03-01 04:13:00,
2013-02-28 20:18:00,48.9,47.0,30.30,ESE,117,0.0,0.0,93,0.00,,,0.00,Wunderground v.1.15,2013-03-01 04:18:00,
2013-02-28 20:23:00,48.9,47.0,30.30,ESE,117,0.0,1.0,93,0.00,,,0.00,Wunderground v.1.15,2013-03-01 04:23:00,
2013-02-28 20:28:00,48.8,46.9,30.30,ESE,117,0.0,1.0,93,0.00,,,0.00,Wunderground v.1.15,2013-03-01 04:28:00,
2013-02-28 20:33:00,48.8,46.9,30.30,ESE,117,0.0,0.0,93,0.00,,,0.00,Wunderground v.1.15,2013-03-01 04:33:00,
2013-02-28 20:38:00,48.6,46.7,30.30,ESE,117,0.0,0.0,93,0.00,,,0.00,Wunderground v.1.15,2013-03-01 04:38:00,
2013-02-28 20:43:00,48.8,47.2,30.30,ESE,117,0.0,0.0,94,0.00,,,0.00,Wunderground v.1.15,2013-03-01 04:43:00,
2013-02-28 20:48:00,49.1,47.4,30.31,ESE,118,0.0,2.0,94,0.00,,,0.00,Wunderground v.1.15,2013-03-01 04:48:00,
2013-02-28 20:53:00,49.4,47.7,30.31,ESE,118,0.0,1.0,94,0.00,,,0.00,Wunderground v.1.15,2013-03-01 04:53:00,
2013-02-28 20:58:00,49.4,47.7,30.31,ESE,118,0.0,1.0,94,0.00,,,0.00,Wunderground v.1.15,2013-03-01 04:58:00,
2013-02-28 21:00:00,49.4,47.7,30.31,ESE,118,0.0,0.0,94,0.00,,,0.00,Wunderground v.1.15,2013-03-01 05:00:00,
2013-02-28 21:05:00,49.5,47.8,30.31,WSW,248,0.0,2.0,94,0.00,,,0.00,Wunderground v.1.15,2013-03-01 05:05:00,
2013-02-28 21:06:00,49.6,47.9,30.31,WSW,248,0.0,2.0,94,0.00,,,0.00,Wunderground v.1.15,2013-03-01 05:06:00,
2013-02-28 21:11:00,49.6,47.7,30.31,WSW,248,0.0,0.0,93,0.00,,,0.00,Wunderground v.1.15,2013-03-01 05:11:00,
2013-02-28 21:16:00,49.8,47.9,30.31,WSW,248,0.0,0.0,93,0.00,,,0.00,Wunderground v.1.15,2013-03-01 05:16:00,
2013-02-28 21:21:00,49.6,47.4,30.31,WSW,248,0.0,0.0,92,0.00,,,0.00,Wunderground v.1.15,2013-03-01 05:21:00,
2013-02-28 21:26:00,49.5,47.3,30.31,WSW,248,0.0,0.0,92,0.00,,,0.00,Wunderground v.1.15,2013-03-01 05:26:00,
2013-02-28 21:31:00,49.4,47.2,30.31,WSW,248,0.0,1.0,92,0.00,,,0.00,Wunderground v.1.15,2013-03-01 05:31:00,
2013-02-28 21:36:00,49.1,46.9,30.31,WSW,248,0.0,1.0,92,0.00,,,0.00,Wunderground v.1.15,2013-03-01 05:36:00,
2013-02-28 21:41:00,48.9,46.7,30.31,WSW,248,0.0,0.0,92,0.00,,,0.00,Wunderground v.1.15,2013-03-01 05:41:00,
2013-02-28 21:46:00,48.9,46.7,30.31,WSW,248,0.0,1.0,92,0.00,,,0.00,Wunderground v.1.15,2013-03-01 05:46:00,
2013-02-28 21:51:00,48.9,46.4,30.31,WSW,248,0.0,0.0,91,0.00,,,0.00,Wunderground v.1.15,2013-03-01 05:51:00,
2013-02-28 21:56:00,49.2,47.0,30.31,WSW,248,0.0,1.0,92,0.00,,,0.00,Wunderground v.1.15,2013-03-01 05:56:00,
2013-02-28 22:01:00,49.5,47.0,30.32,WSW,248,0.0,1.0,91,0.00,,,0.00,Wunderground v.1.15,2013-03-01 06:01:00,
2013-02-28 22:06:00,50.1,47.6,30.32,WSW,248,0.0,1.0,91,0.00,,,0.00,Wunderground v.1.15,2013-03-01 06:06:00,
2013-02-28 22:11:00,51.3,48.2,30.32,WSW,248,1.0,2.0,89,0.00,,,0.00,Wunderground v.1.15,2013-03-01 06:11:00,
2013-02-28 22:16:00,52.6,48.5,30.31,WSW,248,0.0,2.0,86,0.00,,,0.00,Wunderground v.1.15,2013-03-01 06:16:00,
2013-02-28 22:21:00,53.8,48.8,30.31,WSW,248,0.0,2.0,83,0.00,,,0.00,Wunderground v.1.15,2013-03-01 06:21:00,
2013-02-28 22:26:00,54.5,48.8,30.31,WSW,248,0.0,3.0,81,0.00,,,0.00,Wunderground v.1.15,2013-03-01 06:26:00,
2013-02-28 22:31:00,55.3,48.9,30.31,WSW,248,0.0,0.0,79,0.00,,,0.00,Wunderground v.1.15,2013-03-01 06:31:00,
2013-02-28 22:36:00,55.4,48.7,30.31,WSW,248,0.0,1.0,78,0.00,,,0.00,Wunderground v.1.15,2013-03-01 06:36:00,
2013-02-28 22:41:00,55.7,48.6,30.31,WSW,248,2.0,2.0,77,0.00,,,0.00,Wunderground v.1.15,2013-03-01 06:41:00,
2013-02-28 22:46:00,56.2,48.7,30.31,WSW,248,0.0,3.0,76,0.00,,,0.00,Wunderground v.1.15,2013-03-01 06:46:00,
2013-02-28 22:51:00,56.5,48.7,30.31,WSW,248,1.0,2.0,75,0.00,,,0.00,Wunderground v.1.15,2013-03-01 06:51:00,
2013-02-28 22:56:00,56.9,48.7,30.31,WSW,248,0.0,2.0,74,0.00,,,0.00,Wunderground v.1.15,2013-03-01 06:56:00,
2013-02-28 23:01:00,57.0,48.4,30.31,WSW,248,0.0,0.0,73,0.00,,,0.00,Wunderground v.1.15,2013-03-01 07:01:00,
2013-02-28 23:06:00,56.7,48.5,30.31,WSW,248,0.0,0.0,74,0.00,,,0.00,Wunderground v.1.15,2013-03-01 07:06:00,
2013-02-28 23:11:00,56.3,48.1,30.31,WSW,248,1.0,2.0,74,0.00,,,0.00,Wunderground v.1.15,2013-03-01 07:11:00,
2013-02-28 23:16:00,56.0,48.2,30.31,WSW,248,1.0,2.0,75,0.00,,,0.00,Wunderground v.1.15,2013-03-01 07:16:00,
2013-02-28 23:21:00,56.2,48.0,30.31,WSW,248,1.0,3.0,74,0.00,,,0.00,Wunderground v.1.15,2013-03-01 07:21:00,
2013-02-28 23:26:00,56.6,48.0,30.31,WSW,253,4.0,4.0,73,0.00,,,0.00,Wunderground v.1.15,2013-03-01 07:26:00,
2013-02-28 23:31:00,57.0,48.1,30.31,West,264,1.0,2.0,72,0.00,,,0.00,Wunderground v.1.15,2013-03-01 07:31:00,
2013-02-28 23:36:00,57.2,47.9,30.31,West,264,0.0,3.0,71,0.00,,,0.00,Wunderground v.1.15,2013-03-01 07:36:00,
2013-02-28 23:41:00,56.7,47.8,30.31,West,264,0.0,1.0,72,0.00,,,0.00,Wunderground v.1.15,2013-03-01 07:41:00,
2013-02-28 23:46:00,56.5,47.6,30.31,West,264,1.0,3.0,72,0.00,,,0.00,Wunderground v.1.15,2013-03-01 07:46:00,
2013-02-28 23:51:00,56.7,47.8,30.31,West,264,0.0,1.0,72,0.00,,,0.00,Wunderground v.1.15,2013-03-01 07:51:00,
2013-02-28 23:56:00,56.3,47.4,30.31,West,264,0.0,1.0,72,0.00,,,0.00,Wunderground v.1.15,2013-03-01 07:56:00,